Terminal Aerodrome Forecast
Issued by NWS

Home | Current Version | Previous Version | Graphics & Text | Print | Product List | Glossary On
Versions: 1 2 3 4 5 6 7 8 9 10 11 12 13 14 15 16 17 18 19 20 21 22 23 24 25 26 27 28 29 30 31 32 33 34 35 36 37 38 39 40 41 42 43 44 45 46 47 48 49 50
000
FTUS43 KLOT 271500 AAB
TAFGYY
TAF AMD
KGYY 271554Z 2716/2812 20013G22KT P6SM OVC007
      TEMPO 2717/2718 27020G30KT -SHRA OVC015
     FM271800 27016G27KT P6SM OVC020
     FM272300 28012G18KT P6SM BKN025
     FM280200 30009KT P6SM BKN025=

USA.gov is the U.S. government's official web portal to all federal, state and local government web resources and services.